Weather Roundup
Issued by NWS Chicago, IL

Home | Current Version | Previous Version | Graphics & Text | Print | Product List | Glossary On
Versions: 1 2 3 4 5 6 7 8 9 10 11 12 13 14 15 16 17 18 19 20 21 22 23 24 25 26 27 28 29 30 31 32 33 34 35 36 37 38 39 40 41 42 43 44 45 46 47 48 49 50
000
NZUS59 KLOT 230400
HRRLOT

CHICAGO AREA WEATHER ROUNDUP
NATIONAL WEATHER SERVICE CHICAGO/ROMEOVILLE IL
1100 PM CDT TUE APR 22 2014

NOTE: "FAIR" INDICATES FEW OR NO CLOUDS BELOW 12,000 FEET WITH NO
SIGNIFICANT WEATHER AND/OR OBSTRUCTIONS TO VISIBILITY.

* THESE STATIONS ARE NOT UNDER NWS QUALITY CONTROL. THEY ALSO MAY NOT
  REPORT WEATHER SUCH AS PRECIPITATION OR FOG.

ILZ005-006-012>014-019>023-230500-
NORTHEAST ILLINOIS

CITY           SKY/WX    TMP DP  RH WIND       PRES   REMARKS
OHARE          CLEAR     41  26  55 NE5       30.07S
MIDWAY         CLEAR     42  28  57 NE6       30.07S
AURORA         CLEAR     40  27  59 E7        30.08R
WAUKEGAN       CLEAR     31  27  85 CALM      30.07R
DUPAGE AIRPORT CLEAR     38  27  64 NE6       30.07R
WHEELING       CLEAR     39  29  67 CALM      30.09R
NORTHERLY IS     N/A     41  30  65 NE6         N/A
$$

WIZ051-052-058>065-066-070>072-230500-
SOUTHEAST WISCONSIN

CITY           SKY/WX    TMP DP  RH WIND       PRES   REMARKS
MILWAUKEE      PTCLDY    37  30  75 NE9       30.10R
KENOSHA*       CLEAR     37  28  70 N3        30.08R
RACINE*        CLEAR     37  30  75 NE10      30.10R
$$

INZ001>003-010>013-019-020-230500-
NORTHWEST INDIANA

CITY           SKY/WX    TMP DP  RH WIND       PRES   REMARKS
GARY*          NOT AVBL
MICHIGAN CITY* NOT AVBL
RENSSELAER*    NOT AVBL
VALPARAISO     CLEAR     36  27  69 N5        30.06S
$$

LMZ740>746-230500-
SOUTHERN LAKE MICHIGAN

STATION/POSITION TIME  SKY/WX   TEMP WIND        PRES    VSBY
                                AIR  DIR/SP/G
                 (UTC)          (F)  (DEG/KT/KT) (MB)    (MI)
HARRISON CRIB    0300            40   30/  6/  8   N/A
BURNHAM HARBOR   0400            41   30/  5/ 11   N/A
CALUMET HARBOR   0300            40   20/  5/  8 1019.0F
BURNS HARBOR     NOT AVBL
MICHIGAN CITY    0300            39  330/ 11/ 14   N/A
$$

ABBREVIATIONS USED IN REMARKS
   TC - TEMPERATURE IN CELSIUS
  WCI - WIND CHILL INDEX
   HX - HEAT INDEX
  VSB - VISIBILITY
$$


USA.gov is the U.S. government's official web portal to all federal, state and local government web resources and services.